Powrót do katalogu

COSMOS 565

AktywnyMilitariaLEO
NORAD 6676·PAYLOAD·🇷🇺 Russia

Wystrzelony Jun 8, 1973 z Plesetsk Cosmodrome

Loading…

Następne Przeloty (najbliższe 24 godziny)

TLE

ŚwieżeSource: Space-Track

Epoka: Sep 14, 2026, 10:21 UTC

1 06676U 73037B   26257.43191302 -.00000027  00000-0 -72715-4 0  9997
2 06676  74.0153 247.3242 0025514 159.2821 274.3647 12.48972112428651

Śledź COSMOS 565 w czasie rzeczywistym z AllMySat

Download on the App Store